Starlink 30235

operational
NORAD ID: 57294 Int'l Des: 2023-096 Owner: SPXS Country: US Constellation: starlink
LEOCIRCULAR

关于 Starlink 30235

正在加载描述...

实时位置

正在加载3D地球...

即将过境

高度历史

Altitude vs Time

uPlot chart will show altitude changes over time

两行轨道根数

1 57294U 23096E 25259.24314664 .00000513 00000-0 53015-4 0 9997
2 57294 43.0027 91.2691 0001054 265.2274 94.8448 15.02534405121371
Epoch: Sep 16, 2025 • Age: 54 hours

当前状态

高度 566.9 km
速度 7.58 km/s
星下点 -30.56°S, 128.06°E
发射日期 Jul 10, 2023
运行时间 2.1 years
类型 internet

技术详情

分类 Payload
质量 730.00 kg
干质量 700.00 kg
总质量 730.00 kg
长度 0.30 m
直径 4.10 m
跨度 29.00 m
形状 Box + pan
制造商 SPXS
平台类型 Starlink V2M
阶段状态 In Orbit
所有者/国家 SPXS/US

大型星座

Loading constellations...